RH
83 81 82 87 95 100 99 94 89 86 82 81 84 83 82 87 90 85 79 80 84 80 74 75 76 78 83 80 74 77 77 68 58 54 55 52 46 43 40 39 38 39 39 36 35 36 35 38 41 42 49 57 53 47 45 42 41 41 41 40 36 33 36 38 41 45 47 49 52 53 58 62 66 75 80 73 63 57 53 48 42 38 36 33 29 27 27
83 82 83 85 91 97 101 102 97 88 84 84 83 79 80 83 84 83 82 83 87 85 80 79 78 76 76 75 75 74 74 72 65 56 55 55 50 47 44 44 46 44 41 37 35 34 31 29 30 31 38 44 42 42 41 38 35 32 31 32 33 36 40 40 40 42 46 54 62 62 61 60 60 62 60 56 54 55 54 51 48 46 42 39 37 35 35
76 76 76 77 81 89 94 98 97 91 87 87 85 82 82 80 76 80 86 86 87 90 87 84 80 76 74 74 77 79 75 72 69 64 61 57 51 48 46 45 44 42 39 35 33 32 31 29 28 27 27 28 28 31 34 33 30 29 30 33 36 38 39 38 36 39 45 53 56 57 57 56 54 54 52 50 49 49 49 48 46 43 38 35 34 32 31
71 68 68 69 70 76 84 91 96 96 93 90 88 85 85 81 72 75 83 80 76 78 78 78 80 80 80 80 84 89 85 73 70 75 74 64 55 50 46 43 42 41 38 36 33 32 29 26 26 24 23 24 26 28 30 31 31 31 30 31 31 31 32 33 35 38 41 40 39 43 47 47 47 48 47 46 44 42 42 40 37 36 33 30 29 26 26
71 66 67 70 69 69 74 80 85 92 96 97 95 92 91 86 74 71 74 67 62 64 64 68 74 73 74 77 79 88 93 85 76 74 72 67 64 60 55 54 54 53 52 48 42 37 33 30 29 27 26 26 27 28 28 28 29 28 29 31 31 29 31 36 41 41 38 35 32 32 33 34 35 35 35 35 33 33 33 32 31 32 31 30 30 29 28
70 68 70 76 75 69 71 78 84 88 92 94 96 98 99 95 85 81 76 66 63 69 69 69 73 71 70 72 71 76 85 87 82 76 71 68 67 68 70 72 71 70 71 69 63 55 47 41 38 38 38 38 37 34 33 33 33 33 34 33 32 38 47 51 52 49 41 34 29 24 24 25 23 23 25 26 26 27 28 27 29 31 31 31 31 29 29
65 65 68 72 74 74 80 89 93 91 90 91 92 94 99 100 97 94 89 81 77 77 75 74 75 74 73 71 68 69 73 77 76 72 68 68 69 72 74 73 75 77 76 74 73 69 64 58 51 48 46 45 45 45 44 44 42 39 39 38 41 58 74 75 73 65 45 29 24 22 22 23 23 24 26 25 26 28 28 29 32 33 33 33 33 33 33
58 58 62 66 70 76 86 95 96 91 91 95 93 91 94 97 98 97 94 92 88 80 75 77 78 78 79 76 71 68 68 71 70 66 63 64 67 70 69 63 63 65 62 62 66 68 69 68 62 58 58 58 60 63 62 61 55 48 43 38 39 56 74 80 83 72 44 25 24 24 24 27 28 28 29 31 34 35 35 36 37 37 35 34 34 34 32
54 56 62 65 67 72 79 86 91 91 93 97 96 94 97 99 100 99 96 95 96 90 83 83 83 81 79 77 74 69 66 66 65 63 63 60 58 60 59 56 58 59 60 67 72 69 71 76 78 80 81 80 82 85 83 82 78 69 60 49 43 54 70 78 80 71 51 38 36 36 37 38 36 35 37 40 42 42 42 42 40 37 36 33 31 32 31
71 72 74 72 71 75 77 77 83 89 93 96 93 91 94 96 96 99 100 99 100 99 96 94 93 90 86 81 77 71 69 69 68 69 71 71 70 70 65 65 72 75 77 84 86 80 79 85 88 90 88 86 89 94 94 92 92 89 85 76 66 68 77 81 80 76 68 60 57 58 57 54 51 49 46 46 48 49 47 45 43 40 37 34 33 33 32
77 74 81 91 93 91 88 84 83 85 87 93 95 90 88 87 85 90 97 100 100 100 101 100 99 98 95 91 87 83 83 84 84 88 90 86 84 84 81 84 91 91 89 95 98 95 93 92 90 92 93 93 97 100 98 97 97 97 97 94 85 83 88 92 93 92 88 85 84 85 84 80 74 67 62 61 62 59 53 49 46 42 39 37 36 35 33
63 60 69 85 95 96 95 93 92 88 89 97 102 98 93 89 84 80 84 90 91 92 93 93 92 91 88 87 89 93 98 100 99 101 100 93 89 89 89 93 98 96 92 95 99 100 100 98 96 98 100 99 100 101 100 101 101 100 101 101 98 97 99 100 100 100 99 99 99 100 100 97 89 82 77 74 68 60 54 49 46 43 41 40 39 37 35
68 75 77 77 82 88 89 90 93 93 94 99 102 101 101 99 89 78 74 76 78 77 77 79 82 84 84 86 89 93 98 102 102 101 99 96 94 94 93 94 98 99 97 95 96 97 99 99 100 101 100 100 100 100 100 100 100 100 101 101 100 100 100 100 100 100 100 101 101 101 101 97 91 84 77 70 64 59 53 49 47 46 43 41 40 38 35
78 84 86 83 86 91 88 87 91 88 88 95 97 97 101 98 86 75 70 70 73 72 70 73 76 77 78 81 88 93 97 99 101 100 100 99 98 98 97 96 97 100 101 99 98 99 98 98 99 100 100 100 100 101 101 101 100 100 101 101 101 101 100 100 100 100 99 98 95 93 90 85 79 74 68 62 59 56 52 49 47 46 44 42 40 38 35
93 90 89 90 93 93 87 85 85 82 85 95 97 95 96 92 85 81 76 72 72 73 73 74 73 69 66 68 76 84 91 95 97 98 99 99 99 99 99 97 96 95 94 91 89 88 88 87 88 88 88 88 89 90 92 92 92 91 91 92 92 91 88 87 86 86 85 83 79 76 72 69 67 64 61 59 56 53 51 49 45 44 43 40 39 38 37
101 100 97 95 92 89 86 83 83 87 92 96 93 88 85 83 84 87 84 78 75 75 76 79 80 74 67 65 69 75 82 88 91 92 93 93 93 92 92 91 89 84 78 74 71 69 69 69 69 70 70 71 72 72 73 73 73 73 72 71 71 70 69 68 67 67 67 66 65 64 62 60 59 57 55 54 52 50 48 46 43 42 41 40 42 43 42
94 97 98 95 86 84 87 86 85 90 93 91 88 84 81 81 87 94 95 91 90 90 90 92 94 89 80 73 71 72 76 79 82 84 86 85 85 84 85 86 83 77 71 67 63 61 60 59 60 62 63 64 64 63 63 63 63 62 61 60 60 59 58 58 57 57 58 58 58 58 57 55 54 52 52 52 51 50 50 49 48 46 44 46 47 46 47
73 77 82 85 81 81 87 87 85 87 91 93 95 94 91 89 91 96 100 100 99 99 99 99 99 98 95 90 87 86 86 86 86 86 86 84 82 81 82 84 81 74 69 65 62 61 61 59 60 62 63 64 64 62 61 60 59 59 57 56 56 56 55 55 55 55 55 55 56 57 57 58 56 54 54 53 51 52 52 52 52 51 50 50 49 48 49
57 59 64 71 74 77 81 80 78 80 87 92 92 92 91 87 85 88 94 99 100 100 101 102 101 102 101 98 95 92 90 88 85 83 81 81 80 78 77 78 77 71 67 65 64 63 63 62 63 64 64 65 64 62 60 59 58 57 56 56 56 56 55 56 57 57 56 57 58 58 58 58 57 54 52 50 47 46 46 45 45 44 42 42 40 40 41
49 48 49 51 55 59 62 66 68 72 79 82 83 85 85 81 80 81 83 88 95 97 97 98 97 97 95 91 86 81 76 73 71 69 69 69 68 66 65 65 66 66 64 64 63 62 61 61 62 62 62 62 61 60 60 59 58 58 58 58 59 58 58 57 56 55 54 52 51 50 48 46 43 39 37 34 31 30 28 27 27 25 24 25 24 23 24
51 48 43 36 34 35 36 40 46 53 60 65 69 73 74 71 73 77 80 85 91 95 96 96 94 93 92 91 88 82 78 76 74 71 69 67 64 63 62 61 61 62 62 61 61 61 60 60 60 60 61 60 60 59 57 55 54 53 52 52 51 49 46 43 40 37 35 32 29 27 24 22 20 18 17 15 14 14 14 13 13 13 13 13 13 13 13
49 50 49 43 38 33 25 22 27 36 42 43 43 45 47 48 52 60 71 80 87 94 100 101 99 98 97 98 96 91 88 88 88 85 82 80 77 75 74 72 70 71 71 70 68 65 63 61 59 57 55 52 50 47 44 41 38 35 33 30 27 24 22 20 18 16 15 14 13 12 11 11 11 10 11 11 10 11 11 11 11 11 12 11 11 12 10
38 42 49 51 49 43 32 25 26 30 31 31 29 28 28 29 31 35 42 48 55 64 73 80 84 87 88 89 88 85 82 82 81 79 78 76 73 70 68 65 62 60 58 55 52 49 45 42 38 34 31 28 25 22 20 18 16 15 14 13 12 12 11 10 10 11 11 11 11 11 11 11 11 11 11 11 11 11 11 11 11 10 10 10 9 10 9
31 32 39 42 42 40 33 26 24 24 22 22 23 23 22 23 23 23 23 22 23 27 31 36 41 44 46 48 48 48 48 47 45 45 45 45 43 40 37 34 32 30 27 25 23 22 20 18 16 15 13 12 11 11 10 11 11 11 11 11 11 11 11 11 12 12 11 11 11 11 11 11 11 13 13 12 12 13 14 17 18 17 17 16 15 14 13
26 24 26 26 27 28 25 21 19 19 19 19 19 18 19 21 22 22 20 19 19 19 18 18 19 19 20 20 19 20 20 19 19 21 22 23 23 21 19 18 17 15 15 14 14 14 14 14 14 14 14 13 13 13 12 12 12 11 10 10 10 10 10 11 11 11 12 15 16 18 20 22 23 25 28 28 28 28 30 32 35 35 34 34 32 30 27
24 22 21 21 21 22 21 19 18 17 19 20 20 19 21 22 21 21 21 21 21 21 20 21 21 20 20 20 19 19 19 18 18 18 18 19 20 19 18 18 17 16 17 17 17 17 17 17 16 15 14 13 12 11 10 10 10 10 10 11 11 12 13 15 18 23 26 29 32 35 37 39 40 39 39 38 35 34 34 35 37 39 39 41 42 41 39
28 24 23 23 23 22 21 20 19 18 18 19 19 20 22 23 22 22 22 22 22 21 21 22 21 21 21 21 21 21 21 21 21 21 20 21 21 21 21 21 20 20 19 18 18 17 15 15 13 11 10 10 10 10 12 12 12 13 14 16 17 19 24 29 34 38 40 41 44 45 44 42 40 36 31 27 23 22 21 22 24 27 29 32 35 37 37
38 33 30 28 26 25 23 22 21 20 20 20 20 19 20 21 23 22 22 22 23 22 23 23 22 22 22 22 22 23 22 22 23 22 22 22 21 21 21 19 17 17 16 15 15 14 13 13 12 11 12 13 14 16 18 18 20 22 22 24 27 31 36 41 43 44 45 44 43 40 37 35 32 26 22 18 14 13 13 13 14 15 16 20 25 29 33
47 44 41 36 33 30 28 26 25 23 22 22 22 20 19 20 21 21 20 22 23 23 23 23 23 23 23 23 23 23 23 22 22 21 21 20 19 17 16 16 15 15 14 14 15 17 19 21 20 19 20 19 19 23 25 26 28 29 29 30 34 38 43 46 45 44 43 40 37 36 33 29 24 18 15 13 11 11 12 13 15 16 15 15 16 18 25
54 52 50 46 42 38 34 32 30 28 26 25 24 22 21 21 22 21 21 21 22 21 21 21 21 21 21 20 20 20 19 19 19 18 17 16 15 14 14 14 14 15 17 21 27 33 39 42 40 35 31 28 28 30 32 31 31 31 31 35 40 46 49 47 45 43 41 39 38 36 30 23 19 15 13 12 12 15 21 27 32 34 31 26 19 14 20
62 59 56 53 51 49 44 40 37 34 31 30 28 27 25 24 23 23 23 22 22 22 21 21 20 20 19 19 18 18 18 17 17 17 16 15 14 14 15 16 18 24 32 40 49 58 64 66 62 55 47 43 41 40 39 39 38 40 43 47 50 52 52 47 45 44 42 40 38 32 25 23 20 14 12 15 24 37 52 59 59 56 55 48 34 24 29
69 66 63 59 56 55 52 50 47 43 39 36 33 31 30 28 27 27 26 25 25 24 23 22 22 21 20 20 19 18 18 17 16 15 14 13 13 15 19 26 35 46 56 63 70 76 77 74 68 60 52 47 46 45 45 47 47 50 53 55 55 54 51 48 47 45 41 38 34 29 27 26 20 13 19 34 52 69 76 69 58 60 69 65 46 38 52
72 71 69 65 61 58 57 56 54 51 48 44 40 37 35 32 31 31 30 29 28 27 26 26 24 23 22 21 20 19 18 16 15 14 13 14 18 25 35 49 63 71 75 78 81 82 78 71 65 59 52 47 47 47 48 50 51 54 56 56 55 53 50 47 47 43 40 38 34 31 32 27 16 18 39 62 75 80 74 65 66 78 87 80 64 62 79
73 74 73 70 67 64 61 58 57 56 55 53 49 46 43 40 38 36 34 33 31 30 29 28 27 26 25 23 21 19 17 15 14 13 15 23 32 42 55 72 83 85 82 81 82 80 74 67 64 59 54 54 56 55 52 49 49 51 51 50 50 48 46 45 45 42 42 41 36 35 35 24 14 30 60 78 82 79 72 72 85 94 90 84 86 93 100
72 72 73 73 72 70 66 63 60 58 57 58 57 56 53 50 47 43 40 38 36 34 33 32 30 28 27 24 22 19 16 14 14 17 27 39 48 57 71 86 92 89 84 80 77 74 70 67 65 60 56 59 64 63 59 54 50 47 45 44 44 43 43 45 45 44 45 44 40 40 34 19 18 47 77 84 84 88 87 88 96 98 92 93 99 101 100
73 72 72 73 72 71 69 67 65 62 60 59 60 60 60 59 56 52 48 44 41 39 36 35 33 30 28 25 22 18 15 15 19 28 43 56 60 64 75 85 87 85 82 76 72 68 65 64 66 63 59 61 66 67 64 60 55 51 48 47 47 46 46 47 47 47 48 48 46 44 31 16 27 64 86 83 84 93 97 98 101 100 97 100 101 100 101
79 77 74 72 70 68 67 67 66 65 65 64 63 62 61 61 61 59 55 51 47 43 40 37 35 33 29 25 21 18 15 18 27 40 55 66 68 66 68 72 76 77 75 71 68 67 63 62 65 66 63 61 63 66 65 62 59 58 56 54 53 52 51 49 49 49 52 54 54 46 26 15 36 73 87 83 87 96 96 96 100 101 101 103 101 95 90
86 83 80 76 73 70 69 68 66 64 65 66 66 64 64 64 63 63 61 57 52 47 44 40 36 34 30 25 20 18 18 24 36 49 60 67 70 66 62 62 67 70 68 66 67 68 66 66 68 68 65 61 59 60 59 56 54 54 51 49 48 48 49 50 51 52 56 61 59 47 27 17 38 71 84 82 89 98 98 99 102 100 95 93 87 78 73
93 89 86 83 79 75 73 71 67 66 67 66 66 66 66 66 66 65 65 63 58 52 47 43 38 34 30 24 20 20 24 32 43 54 60 64 67 63 59 60 65 68 68 68 67 67 70 75 76 72 65 59 56 55 52 48 45 43 40 39 37 36 38 44 50 54 60 65 61 49 33 23 33 55 71 80 90 99 100 98 91 77 69 74 82 86 90
101 98 95 92 88 84 80 75 71 69 69 68 69 70 70 69 69 70 69 67 64 57 50 44 39 34 29 23 20 23 29 38 47 55 59 62 63 60 57 59 65 68 68 68 66 66 71 79 80 75 68 61 56 52 49 45 41 38 34 32 31 28 27 31 37 45 58 68 66 54 41 34 34 41 52 64 77 89 97 96 82 64 63 81 97 100 99
103 103 102 100 96 91 87 83 79 75 73 71 72 74 73 71 71 73 73 71 68 61 53 45 39 33 27 22 22 26 33 41 50 55 58 60 61 60 58 58 62 69 72 73 72 72 75 77 77 75 72 67 61 56 50 45 42 38 33 29 28 26 23 22 23 27 40 58 70 66 55 45 42 43 48 53 57 63 73 80 77 70 73 86 96 95 92
101 103 103 102 100 96 92 87 84 81 78 77 77 78 78 75 72 73 74 73 70 64 55 46 39 33 27 22 23 28 35 43 50 54 57 58 58 59 59 58 59 61 64 68 76 82 80 74 72 71 70 69 65 60 53 47 43 38 34 31 27 25 23 21 20 18 20 33 54 69 72 65 56 50 50 56 61 63 65 67 67 68 69 70 70 69 66
100 101 101 100 101 100 96 91 86 82 81 84 85 84 82 79 76 75 76 75 73 67 58 48 40 34 27 23 24 29 35 41 45 51 56 58 57 57 58 56 53 54 59 72 88 94 85 72 68 70 69 66 63 58 53 49 45 40 37 34 30 27 24 22 21 20 18 17 26 42 60 73 77 72 63 59 62 67 74 81 84 84 81 77 73 71 67
100 100 101 100 101 102 101 97 93 88 87 89 90 88 86 84 82 80 81 81 79 73 63 51 42 34 28 23 24 28 33 37 39 44 51 57 60 62 59 53 52 64 80 92 98 95 83 72 71 72 68 63 59 53 49 48 46 42 39 36 33 30 28 26 23 22 22 19 18 20 27 42 61 76 82 81 75 69 69 77 87 90 88 87 87 86 87
101 100 101 101 99 100 101 101 100 97 95 93 92 90 88 88 87 87 87 87 86 81 70 57 45 37 30 26 24 25 30 35 38 40 48 60 70 75 73 66 66 80 93 94 90 86 82 76 73 70 64 58 54 49 46 47 47 44 41 40 37 35 33 31 29 27 25 23 22 21 19 19 26 39 55 73 86 88 85 82 81 80 80 85 91 93 95
102 100 100 101 101 100 100 101 101 101 100 99 99 97 95 92 91 93 93 93 92 89 79 64 51 41 34 29 24 26 33 41 43 43 51 66 80 88 91 90 91 96 97 93 90 89 86 77 69 62 55 49 44 41 42 46 47 45 42 42 41 40 38 36 34 33 31 29 26 25 23 22 21 20 22 32 48 66 81 92 97 96 93 93 96 98 100
101 101 100 100 101 100 101 101 101 100 101 101 102 102 101 99 97 97 96 96 97 94 86 71 56 45 38 32 29 33 47 61 63 59 64 78 91 98 101 103 103 102 100 97 93 88 81 71 60 50 42 36 33 32 37 42 44 43 42 41 41 41 42 41 39 36 35 34 32 30 28 26 25 24 22 20 20 25 36 53 73 91 102 105 104 101 100
96 99 102 102 100 99 100 101 100 100 101 102 101 101 102 102 102 101 100 101 101 100 93 79 62 48 41 38 35 37 53 75 86 85 85 93 100 103 102 102 102 101 100 96 89 82 75 66 53 42 35 32 29 27 30 35 37 37 38 40 41 40 40 40 41 40 39 37 35 33 32 30 28 26 25 23 21 19 17 19 27 43 64 84 98 104 104
92 93 98 102 102 101 101 101 101 102 102 102 101 100 99 99 99 100 101 103 104 103 100 92 76 58 46 41 40 43 59 83 99 101 99 101 103 102 101 101 101 99 95 89 82 75 69 59 47 38 34 34 31 27 28 31 33 33 34 37 40 40 39 39 39 40 39 38 37 35 33 32 31 30 28 26 23 21 19 17 16 16 21 34 53 72 88
97 97 97 100 102 103 102 101 101 102 102 101 101 101 100 99 97 96 97 98 101 102 103 102 94 79 62 49 43 47 64 86 100 101 99 99 98 96 96 98 98 94 89 83 77 70 63 57 50 44 40 40 40 37 33 30 31 35 39 41 42 42 42 43 43 43 41 38 37 36 35 34 34 33 33 32 30 26 22 20 19 18 16 16 18 26 42
96 97 97 99 101 103 102 101 100 100 101 101 101 101 100 99 99 99 98 96 97 100 102 103 102 96 86 72 57 51 61 81 95 99 99 99 97 91 87 85 84 81 78 73 66 59 56 56 57 55 50 46 45 45 43 40 39 40 43 47 49 50 48 46 47 48 48 45 43 41 40 40 39 39 39 39 38 35 31 27 23 20 20 20 19 17 18
96 92 93 98 102 102 102 102 101 101 101 100 100 101 101 100 100 101 101 97 95 97 100 101 102 101 99 91 77 63 62 75 91 97 97 97 98 95 88 81 76 73 70 66 60 56 54 55 58 57 53 48 45 45 46 47 46 46 50 57 63 65 63 60 56 55 56 57 58 57 54 50 48 48 49 48 46 42 38 35 32 29 25 22 22 22 21
Wind_Speed
31 33 32 31 30 31 31 31 30 32 34 34 35 35 35 34 35 34 31 29 30 31 31 30 28 27 27 25 22 21 21 22 25 25 25 27 28 28 27 26 25 25 24 24 25 25 25 24 23 23 22 22 23 22 21 19 18 18 18 19 22 22 21 19 17 17 18 20 20 20 21 22 22 22 20 18 19 21 22 23 23 24 23 23 24 25 25
29 31 32 33 34 34 34 32 30 31 34 36 36 34 34 37 39 36 35 34 31 31 32 30 29 29 30 29 27 25 24 24 27 28 26 26 26 25 24 24 24 24 24 25 25 26 27 28 28 27 27 27 26 25 24 22 21 22 23 23 23 21 18 17 17 18 19 18 18 18 19 21 22 22 22 20 19 20 21 22 23 24 24 25 27 28 28
27 28 28 30 32 33 36 36 34 34 35 35 34 32 31 34 37 37 36 35 32 32 32 32 30 29 30 31 30 29 29 27 26 27 26 26 25 24 24 24 25 25 25 25 26 27 27 28 28 29 29 30 30 28 27 25 24 24 23 22 22 21 20 19 19 20 20 19 20 19 19 21 22 23 23 23 22 23 24 24 25 26 27 28 30 31 32
25 27 28 28 29 30 32 35 36 38 38 37 35 34 32 31 32 35 36 36 36 36 35 34 33 31 30 30 29 30 31 30 27 25 23 23 23 23 23 24 24 25 25 26 27 28 28 29 30 31 30 30 30 30 29 28 27 25 24 24 25 24 24 23 22 22 22 22 23 23 23 24 25 25 26 26 27 27 28 29 29 30 31 32 33 35 35
26 27 27 26 27 28 28 30 33 34 37 40 41 41 39 36 33 33 34 36 37 37 36 34 35 35 33 32 30 29 30 31 30 28 25 24 23 23 23 23 24 24 25 27 28 29 30 30 30 31 31 31 32 32 32 31 30 29 27 27 26 26 26 26 25 25 25 26 26 26 27 28 28 29 29 30 31 31 32 32 33 33 35 36 37 38 39
26 27 26 24 24 24 24 25 27 28 32 37 40 41 41 39 35 32 34 36 36 35 34 34 34 35 34 34 33 32 31 31 31 29 28 28 27 26 25 25 25 26 28 29 30 31 31 31 31 31 31 32 33 34 34 34 34 33 32 30 30 29 28 28 29 28 28 29 29 30 31 31 32 32 32 33 33 34 34 35 35 36 38 39 40 41 42
24 25 25 24 24 23 22 22 24 25 28 30 33 36 39 39 37 35 34 36 37 36 35 35 35 36 35 35 35 35 35 34 33 32 30 30 29 29 29 29 30 31 32 33 33 32 33 33 33 33 34 35 35 35 35 36 37 37 36 34 33 31 31 32 33 32 33 33 34 35 35 35 35 35 35 36 37 38 38 38 38 39 40 41 43 43 44
24 25 25 25 25 23 23 23 23 24 26 27 28 30 34 38 40 41 39 38 38 39 38 37 37 37 36 36 36 35 36 36 36 35 34 33 33 33 33 34 35 35 35 35 35 36 37 38 38 37 37 37 37 38 39 39 40 41 40 38 37 36 37 38 38 38 38 38 37 37 38 38 38 39 39 39 40 41 42 42 42 42 42 43 43 44 45
26 25 25 26 26 26 27 26 24 23 24 26 26 27 28 31 34 38 42 43 42 41 41 40 39 39 38 37 37 36 36 36 36 36 36 37 37 38 38 38 37 37 37 37 38 39 41 41 40 38 38 38 39 40 42 42 42 41 41 41 41 40 40 40 42 42 41 40 40 41 41 42 42 43 43 43 43 44 44 44 43 43 44 45 45 45 45
23 23 24 25 25 27 29 28 27 26 25 25 26 27 27 27 27 30 35 39 42 43 42 42 41 41 40 40 39 38 38 38 38 38 39 39 39 40 40 40 40 39 39 40 42 44 43 42 41 41 41 42 43 44 44 43 43 42 42 42 43 42 42 43 45 45 44 44 44 44 45 46 47 47 47 46 45 44 44 45 46 48 49 49 49 49 48
26 24 23 23 23 24 25 25 25 26 26 26 28 28 27 26 26 27 28 30 33 37 39 40 41 41 42 42 41 42 42 42 42 42 41 41 42 42 41 41 41 41 40 39 40 42 42 42 42 43 42 41 41 43 45 45 45 45 44 44 44 44 44 45 46 46 46 47 47 47 47 47 47 48 47 45 45 46 47 50 51 53 53 53 53 53 53
30 28 27 27 26 25 24 24 24 24 23 24 25 26 26 25 25 27 27 27 29 32 33 35 38 40 41 42 41 41 40 39 40 40 41 42 44 45 44 44 44 45 44 41 39 39 38 37 39 41 42 40 38 37 39 41 43 44 45 47 48 47 46 46 46 46 46 45 45 46 46 46 46 46 47 49 51 54 55 55 55 55 55 55 55 55 55
30 28 28 31 31 30 29 28 26 25 24 23 23 23 25 27 28 29 28 28 29 31 32 32 34 34 35 36 37 37 37 37 37 39 41 42 44 45 46 47 47 48 49 48 47 46 44 42 41 41 42 43 42 39 37 38 39 41 42 45 47 47 46 46 45 44 43 43 43 45 48 50 52 53 55 57 58 58 59 58 57 57 58 58 58 58 58
31 30 29 30 30 31 32 30 28 28 28 28 26 26 28 29 30 31 30 29 28 30 30 31 32 32 32 33 33 34 36 37 38 39 41 42 44 45 45 47 48 48 48 48 49 49 49 49 49 47 46 47 47 47 45 43 43 43 44 45 46 47 47 48 48 48 49 51 52 54 56 57 58 59 60 60 60 60 61 60 60 60 60 60 60 61 62
28 29 31 32 31 30 31 31 31 31 31 30 29 29 29 29 29 29 31 31 30 31 31 32 33 34 35 35 35 35 35 35 36 38 39 40 41 42 42 43 43 44 44 43 43 44 45 46 47 48 48 48 49 50 51 51 50 50 51 51 53 54 55 57 58 58 59 59 60 60 60 59 60 60 60 61 62 62 62 63 63 63 63 63 63 63 65
25 27 29 31 32 32 32 32 32 33 32 32 32 31 31 31 30 30 31 32 33 33 33 34 35 36 36 37 37 37 36 36 37 37 38 39 39 39 39 39 39 39 39 39 40 41 42 43 44 45 46 47 48 50 51 52 52 53 54 54 55 57 58 59 61 61 61 61 61 61 61 61 62 62 62 63 64 64 65 66 66 66 66 66 66 66 66
30 30 30 30 31 32 32 33 33 33 33 34 35 34 33 32 32 31 31 31 33 35 36 37 38 38 38 37 37 37 38 38 38 38 39 39 40 40 40 40 40 41 41 42 42 43 44 45 46 47 48 49 50 51 52 53 54 55 56 56 57 58 59 60 61 62 63 63 63 64 64 65 65 66 66 66 66 67 67 68 68 68 68 67 67 67 66
34 35 35 34 33 33 34 34 34 34 34 34 35 34 34 34 34 33 31 30 31 34 36 36 36 37 36 36 36 37 37 37 38 38 39 39 40 40 41 42 44 45 45 46 47 48 48 49 49 50 51 52 52 53 54 55 56 57 58 59 59 60 61 62 63 65 65 66 67 67 68 68 68 68 69 69 69 69 68 68 68 68 68 67 67 67 66
36 37 38 38 38 38 38 38 37 36 36 37 37 36 36 37 37 37 37 35 34 34 34 35 35 36 37 38 38 39 39 40 40 41 42 42 43 44 45 46 48 49 49 50 50 50 51 51 52 53 54 54 55 56 57 58 59 60 60 61 63 64 65 65 66 67 68 68 69 69 69 69 69 69 70 70 70 70 70 69 68 68 68 68 68 68 67
34 35 37 38 40 41 42 42 42 42 42 42 41 41 40 40 39 40 41 42 41 41 41 41 42 43 44 44 44 44 44 45 45 45 46 46 47 48 49 50 51 51 51 52 53 54 54 55 56 56 57 58 59 59 60 61 61 62 63 64 64 65 66 67 67 68 68 69 69 69 70 70 70 71 71 71 71 71 71 71 71 71 71 70 70 69 68
30 31 33 35 37 39 40 41 42 44 45 46 46 46 45 45 44 44 44 45 45 45 45 45 46 46 47 47 47 47 46 46 47 48 48 49 50 50 51 52 52 53 54 55 56 57 57 58 59 59 60 61 61 62 62 63 63 64 65 65 66 67 67 68 68 69 69 70 70 70 70 70 70 70 69 69 69 69 69 70 70 70 69 69 68 67 66
27 27 28 30 32 34 35 36 38 40 42 44 45 46 47 47 47 47 47 47 47 47 47 46 46 46 47 47 47 47 46 46 46 47 48 48 49 50 50 51 52 52 54 55 56 57 57 58 59 60 61 61 62 63 63 63 64 65 65 66 66 66 66 66 66 66 66 65 65 64 64 64 63 63 63 63 63 63 63 64 65 65 65 66 65 64 63
26 25 26 27 28 30 31 31 32 34 36 38 39 41 43 44 44 45 46 47 47 48 48 48 48 47 47 47 46 46 46 46 46 46 47 48 48 49 49 50 51 51 52 53 54 55 56 57 58 58 59 60 61 61 62 62 62 62 61 61 60 60 60 59 59 58 58 57 57 57 57 57 57 57 58 58 58 59 59 59 60 61 61 62 62 62 61
25 26 26 26 26 27 28 28 27 28 28 30 31 32 34 36 38 40 42 44 45 45 45 46 47 46 46 45 45 45 45 46 46 46 47 47 47 48 48 48 49 49 50 51 51 52 52 53 53 54 55 55 55 56 56 55 55 55 54 54 53 53 53 53 52 52 51 51 50 50 50 50 50 50 51 51 51 51 51 51 52 53 54 54 55 55 55
25 26 26 26 26 26 26 26 26 25 24 24 25 25 26 28 31 33 35 37 38 39 41 41 42 42 42 42 42 42 42 42 43 43 44 44 44 44 45 45 45 45 46 46 46 46 47 47 48 48 49 49 50 50 50 49 49 49 49 48 48 47 46 45 44 43 42 41 41 41 41 41 42 42 42 43 43 43 44 45 46 47 47 48 48 48 48
26 26 26 25 25 26 26 26 26 25 24 24 24 23 23 24 26 27 28 29 31 32 33 34 34 35 36 37 37 37 38 38 38 38 38 39 39 39 39 39 40 40 40 41 41 42 43 44 44 45 45 46 46 45 45 43 42 41 40 39 38 37 36 35 33 33 33 33 34 35 35 36 37 37 38 39 41 42 43 45 46 47 47 46 45 44 43
25 25 25 25 26 26 26 26 26 25 25 24 24 24 23 24 25 25 25 26 27 27 28 28 29 29 30 31 31 32 32 32 33 33 33 34 34 35 35 36 36 37 38 38 39 39 40 41 42 42 41 41 39 38 36 34 33 32 31 30 29 28 27 27 27 28 30 31 31 32 32 33 34 37 39 42 44 46 48 49 50 52 52 50 47 45 43
25 24 25 26 26 25 25 25 25 25 24 24 24 24 24 24 25 25 26 26 26 26 27 27 27 28 28 28 28 29 29 30 30 30 31 31 32 32 33 34 34 35 35 35 36 36 36 36 36 36 34 32 30 28 27 27 26 26 25 24 23 23 24 25 27 28 29 30 29 30 31 33 35 39 43 46 49 51 52 53 54 54 55 54 51 48 46
23 24 25 26 25 25 25 25 25 25 24 23 24 24 23 23 24 24 24 24 25 25 26 26 26 27 27 27 27 28 28 28 28 29 29 30 30 31 31 31 32 32 32 31 30 30 29 29 29 28 26 24 22 22 22 22 22 22 22 22 22 23 24 25 27 27 27 28 29 30 32 35 38 42 46 48 49 49 50 50 50 49 50 51 50 49 47
22 22 23 24 24 24 25 24 24 24 24 23 24 24 23 23 23 23 23 23 23 24 24 24 24 25 25 25 26 26 26 26 27 27 28 28 29 29 29 29 28 27 26 24 23 22 22 22 22 22 21 20 20 20 21 21 21 21 22 22 22 23 24 25 25 25 26 27 29 32 34 37 41 45 46 45 43 41 40 40 39 39 39 40 41 42 43
21 21 21 22 22 23 24 24 24 24 24 23 24 24 24 23 23 23 22 22 22 23 23 23 23 23 24 24 24 25 25 25 26 26 27 27 27 27 26 25 23 21 19 18 17 16 17 17 18 19 19 20 20 21 21 22 21 21 21 21 22 22 23 23 23 24 26 28 30 32 34 38 43 45 43 39 36 33 32 33 33 32 30 29 30 32 35
21 20 20 20 21 22 23 24 24 24 23 23 23 24 23 23 23 22 22 22 22 23 23 23 23 23 23 24 24 24 24 24 25 25 25 25 24 23 21 20 18 16 15 14 14 14 14 14 14 15 16 17 17 17 18 19 19 19 19 20 21 22 23 23 23 24 26 28 29 31 34 39 44 43 36 31 28 27 28 30 28 23 20 19 20 21 22
21 21 20 20 20 21 22 22 23 23 23 23 23 23 23 22 22 22 22 22 22 22 22 23 23 23 23 23 23 23 23 23 23 23 22 21 20 18 17 15 14 14 13 13 13 13 13 12 12 13 13 12 12 12 13 15 16 17 19 20 21 22 22 22 23 24 25 26 28 30 34 41 42 36 27 22 21 23 23 21 15 9 8 9 11 14 17
20 21 20 20 20 20 20 21 21 21 21 21 22 22 22 22 22 22 22 22 22 22 22 22 22 22 22 22 23 22 22 21 21 20 19 18 17 16 15 15 14 13 13 12 12 12 12 12 12 12 11 10 9 10 11 12 14 15 17 18 18 19 19 20 21 22 23 24 26 29 35 40 37 28 20 17 17 17 14 6 2 7 9 10 13 16 20
20 20 20 19 19 20 20 20 20 20 20 20 20 21 21 21 21 21 21 21 21 22 22 22 22 22 21 21 21 21 20 19 18 18 17 17 16 16 16 15 15 14 13 12 11 11 12 12 13 12 10 9 9 9 10 10 11 12 12 13 14 15 16 17 19 20 21 23 24 28 35 38 31 21 16 13 11 10 7 3 7 7 8 12 16 19 21
19 19 19 19 19 20 20 20 20 20 19 19 19 19 20 20 21 21 21 21 21 21 21 21 21 21 21 20 20 20 19 18 17 17 17 17 16 16 16 16 16 15 14 13 12 12 12 12 12 12 10 9 9 9 9 9 9 9 9 10 11 12 14 15 17 18 19 21 22 27 34 34 25 16 13 10 7 6 5 2 7 7 7 11 14 18 20
19 19 19 19 20 20 20 20 20 20 19 19 19 19 19 20 20 20 21 20 20 20 20 20 20 20 20 19 19 19 18 17 17 17 18 18 18 17 17 17 17 16 15 13 13 13 12 12 12 11 9 8 9 9 9 9 8 8 9 10 11 13 14 15 16 17 18 19 21 25 32 30 21 13 11 9 6 4 4 2 6 9 10 10 10 12 13
19 19 19 19 20 20 20 20 20 20 20 20 19 19 19 19 19 20 20 20 20 20 20 20 20 20 19 18 18 18 17 17 17 18 19 20 19 19 18 17 16 16 15 13 12 12 12 11 11 9 8 8 9 9 9 8 8 9 9 10 12 13 14 16 17 17 17 17 18 23 29 28 20 13 11 10 7 5 3 2 6 9 10 9 6 6 7
18 19 19 20 20 20 20 20 20 20 20 20 20 19 18 18 19 19 20 20 20 20 19 19 19 19 19 18 18 17 17 17 18 18 19 20 21 20 18 17 17 16 15 13 12 11 11 11 9 8 7 8 9 9 8 8 9 9 10 11 12 13 14 16 17 18 17 16 16 20 25 26 22 16 13 11 9 6 2 3 6 7 7 6 5 5 5
18 19 19 20 20 20 20 20 20 20 20 20 20 19 19 19 19 19 19 19 19 19 19 19 19 19 18 18 18 18 18 18 18 18 19 20 21 21 19 18 17 17 16 14 12 11 11 11 9 7 7 8 9 10 9 9 9 10 10 10 12 13 14 15 17 18 18 17 15 16 20 23 22 18 15 13 10 7 2 2 3 5 6 6 5 5 6
18 19 19 20 20 20 21 21 21 21 21 20 20 19 20 19 19 19 19 19 18 18 18 18 18 18 18 18 18 18 18 18 18 18 19 20 21 21 20 18 18 18 17 16 15 15 14 13 10 8 7 9 10 10 9 9 10 10 10 11 12 13 14 15 16 18 19 18 16 14 15 17 19 18 16 14 12 9 6 2 2 4 6 7 7 8 9
17 18 18 19 20 21 21 21 21 21 21 21 20 20 20 20 19 19 18 18 18 18 18 18 18 18 18 18 18 18 19 18 18 18 19 20 21 21 20 19 19 18 19 20 20 19 18 15 11 8 8 9 10 9 9 9 10 9 10 11 12 13 14 15 16 17 18 19 18 15 13 13 13 14 14 13 12 10 8 6 4 2 3 5 7 7 8
15 16 17 18 19 20 22 22 22 21 21 21 20 20 20 20 20 19 18 18 17 17 18 18 18 18 18 18 18 19 19 18 18 17 18 18 19 20 21 20 20 19 19 20 20 19 17 15 12 9 8 9 9 8 8 10 10 9 9 11 12 12 13 14 15 16 17 18 18 18 16 14 12 10 9 9 9 9 8 7 5 4 3 2 3 4 4
16 17 19 19 18 19 21 23 23 22 22 21 20 21 21 20 19 19 18 18 18 18 18 18 18 18 18 18 18 19 19 18 17 17 16 16 17 18 19 20 19 17 15 14 14 15 15 14 12 10 9 9 9 8 9 10 10 9 9 10 11 12 12 13 14 15 15 16 17 18 18 17 15 12 10 8 7 6 6 5 5 4 4 3 3 4 5
17 19 20 19 18 18 20 22 23 23 22 21 21 20 20 20 19 19 18 18 18 18 18 18 18 18 17 17 18 18 18 18 17 16 15 15 15 16 17 17 17 16 14 13 13 14 15 13 11 10 9 9 9 9 9 10 10 9 9 10 11 12 12 12 13 13 14 15 16 16 16 17 17 16 14 12 10 8 6 6 5 5 5 5 4 3 4
17 18 19 19 18 18 19 20 20 21 21 21 20 20 20 19 18 18 18 18 18 18 18 18 18 18 17 17 17 17 17 17 17 16 15 14 15 16 16 16 17 16 16 15 15 15 15 13 11 10 10 10 9 9 9 9 9 9 9 10 11 12 12 13 13 13 14 14 15 15 16 16 16 16 16 16 14 12 10 8 7 7 7 6 5 4 4
16 17 18 18 18 18 19 21 21 20 19 19 19 19 19 19 18 18 17 17 17 17 18 18 18 17 17 16 17 17 16 16 15 15 14 14 15 16 16 17 17 17 17 17 16 15 14 13 12 11 10 10 10 10 10 10 9 9 10 11 11 12 12 13 13 14 14 15 15 16 16 16 17 17 16 16 16 15 14 12 10 7 6 7 7 7 8
16 16 17 17 18 19 20 21 21 20 19 19 18 18 17 18 18 18 17 16 16 16 17 18 18 18 17 16 17 17 16 15 14 14 14 15 15 16 17 18 18 18 18 18 17 16 14 13 13 12 11 11 11 10 10 10 10 9 10 11 12 12 12 13 13 14 15 15 16 16 16 17 17 18 18 18 17 17 16 15 13 12 9 7 5 6 8
17 18 18 18 17 17 18 19 19 19 19 19 18 18 17 17 18 17 17 16 15 15 15 16 17 18 18 17 17 17 17 16 15 15 15 16 16 17 18 19 19 19 19 18 18 16 15 15 14 13 12 12 12 11 11 11 10 10 10 11 11 12 12 12 13 13 14 14 14 15 16 17 17 18 18 18 18 18 18 17 16 14 13 11 9 7 5
17 18 18 18 18 17 17 18 18 18 18 19 19 19 19 20 20 19 18 16 15 14 14 14 15 17 18 18 18 18 18 18 17 16 17 17 18 18 19 19 20 19 19 18 17 16 16 15 14 14 13 13 13 13 12 12 11 11 11 11 12 12 13 13 13 13 13 13 13 14 15 15 16 17 17 17 17 17 17 17 16 16 15 14 12 11 9
16 17 17 17 17 17 18 17 17 16 16 17 17 18 19 20 21 20 19 17 15 14 13 13 14 16 18 19 20 20 20 19 19 19 19 19 19 20 20 20 20 19 18 18 17 17 16 16 16 15 15 15 14 14 14 14 13 13 13 13 13 14 14 14 14 14 13 13 13 13 14 15 15 16 16 16 16 16 16 16 15 15 15 14 13 12 11
15 16 16 16 15 16 16 16 16 16 16 16 17 17 18 19 19 19 19 18 17 15 15 14 14 15 17 20 22 22 22 21 21 21 21 21 21 21 21 21 20 20 19 19 18 18 18 18 17 17 17 17 16 16 16 16 16 15 15 15 15 16 16 16 16 15 15 14 15 15 15 15 15 15 15 15 15 15 15 15 15 14 13 13 13 12 12
Wind_Direction
242 243 241 239 235 232 233 231 227 223 222 224 227 229 231 233 234 234 234 233 233 236 241 247 250 252 256 256 251 250 247 240 240 238 230 229 234 237 241 244 248 251 254 255 257 260 265 267 267 269 271 273 277 279 278 279 278 275 274 271 268 270 272 272 271 268 266 262 257 252 249 249 254 259 264 264 259 255 256 259 260 260 262 266 268 271 273
244 246 246 244 242 240 238 234 230 230 230 230 231 232 232 232 233 234 235 235 236 239 242 244 246 248 252 255 250 245 246 247 247 242 233 230 233 235 237 241 245 248 251 254 257 260 262 263 262 264 266 267 269 271 273 275 273 273 275 273 270 269 265 265 267 267 265 257 248 246 249 252 256 260 264 267 265 261 259 259 260 261 263 265 267 269 272
244 246 248 247 245 244 242 239 236 236 237 236 236 237 236 235 234 236 238 239 238 240 242 243 244 247 250 255 254 250 249 251 248 244 240 237 236 236 237 240 244 249 252 255 258 259 260 260 261 261 262 264 265 267 269 271 270 269 269 268 269 268 264 264 265 262 258 254 251 252 253 254 255 257 261 263 264 263 262 261 263 264 266 267 269 271 273
245 248 250 251 250 247 244 243 241 239 241 242 240 241 243 241 239 237 240 242 241 241 242 243 245 248 250 254 259 259 255 250 246 247 249 248 247 247 247 250 254 259 262 263 263 262 260 260 260 261 263 265 266 267 267 267 266 264 263 263 264 266 266 265 262 259 256 256 258 258 257 258 259 260 262 264 265 266 266 267 268 270 270 272 272 274 276
248 250 251 251 252 251 247 246 244 242 242 242 242 243 244 244 243 240 239 241 242 243 244 244 246 249 250 252 257 259 257 251 245 245 249 251 252 253 255 258 261 263 266 267 266 266 265 264 265 266 268 270 269 268 268 268 266 264 263 261 261 262 264 261 258 258 256 255 258 260 260 260 260 261 263 265 266 267 268 270 271 272 273 274 274 275 277
244 246 247 249 252 253 250 248 245 243 243 243 243 244 244 243 243 242 241 242 244 245 246 246 247 249 248 250 251 252 253 254 250 246 247 248 248 249 250 253 255 256 258 260 260 261 262 263 265 267 269 270 270 271 272 271 269 266 264 262 262 262 260 256 254 254 254 256 260 262 262 262 262 263 264 266 267 268 269 270 271 272 273 273 275 276 276
246 244 247 249 250 252 253 250 246 244 244 246 246 245 244 243 241 240 240 241 241 241 243 245 247 247 247 247 247 247 248 252 252 250 249 250 249 248 247 246 248 249 251 254 256 258 259 259 259 260 261 264 266 269 271 270 269 267 264 263 261 259 256 255 255 254 256 260 262 263 264 265 264 264 265 266 266 267 268 268 269 271 272 273 275 276 277
254 250 250 249 250 252 252 252 251 248 246 247 248 245 243 241 240 240 239 239 240 239 240 241 243 245 247 247 247 247 246 249 252 254 255 256 255 255 253 252 253 253 256 259 259 258 257 256 256 256 258 261 263 264 265 265 266 266 266 265 263 258 256 258 258 258 259 262 263 264 265 265 265 265 266 265 265 266 268 269 269 270 272 273 274 274 275
254 253 251 250 251 252 250 251 253 252 249 248 249 247 244 241 240 240 240 241 242 243 242 242 242 243 244 246 247 247 247 248 250 253 255 257 258 259 259 260 260 261 262 263 261 258 256 254 252 252 253 256 258 259 259 260 262 263 265 265 264 259 255 256 258 259 261 264 265 266 267 267 266 265 265 265 266 267 269 270 272 273 274 275 275 275 275
249 248 249 250 251 251 250 252 254 253 252 251 250 250 249 245 241 240 240 239 241 243 244 244 244 244 244 245 246 248 249 250 252 253 256 258 259 259 260 260 260 260 259 258 257 257 256 253 252 252 253 254 255 256 259 259 259 259 259 259 258 255 254 255 257 259 261 263 265 266 268 268 267 267 267 267 268 269 270 273 276 278 279 279 278 278 277
246 245 247 249 248 249 251 252 250 251 255 255 252 250 252 250 245 243 242 240 240 242 242 242 243 243 243 243 244 246 248 249 251 253 254 255 255 256 257 256 254 254 255 255 255 255 255 253 251 251 254 256 256 256 257 257 256 256 255 253 252 253 254 255 257 258 260 263 265 267 269 269 269 268 268 268 270 272 274 277 279 280 280 280 280 280 280
250 249 248 247 246 247 251 252 249 247 251 252 248 245 248 250 247 244 244 243 243 244 243 242 243 243 244 244 244 245 247 249 250 250 249 249 250 252 253 253 252 253 255 258 258 257 256 254 251 250 252 256 258 257 255 255 255 255 253 250 249 251 252 251 252 254 257 259 262 265 268 270 270 271 271 273 276 278 279 279 280 280 280 280 280 280 279
251 250 249 249 249 250 253 255 254 248 246 246 243 240 244 248 247 247 247 247 247 248 248 249 248 248 249 249 248 247 247 246 246 246 246 247 248 250 252 254 255 256 257 259 260 259 258 257 256 254 253 254 254 254 253 253 252 252 251 247 245 245 245 246 247 250 253 256 260 263 267 270 272 274 275 277 279 280 280 280 280 279 279 279 279 279 278
248 248 249 250 252 252 253 254 255 252 249 249 247 245 249 252 252 254 255 255 255 254 254 254 253 252 250 250 250 249 247 246 245 245 246 247 248 250 251 253 255 257 258 259 260 260 260 259 260 260 259 258 257 257 257 257 256 254 253 250 249 251 253 255 257 260 263 266 269 271 272 274 275 276 277 277 278 278 278 278 277 278 278 278 278 279 278
247 246 247 248 248 251 253 254 255 255 254 253 251 250 253 256 257 258 259 259 258 258 257 256 256 254 252 251 250 249 249 248 248 247 247 248 249 250 252 253 254 256 259 261 262 263 264 264 265 265 266 266 266 265 265 265 265 264 263 261 261 263 265 267 269 270 272 273 274 275 276 276 276 276 276 276 276 276 276 276 275 275 276 277 277 278 278
248 247 248 248 248 251 254 255 254 254 255 256 256 255 255 256 256 257 256 256 256 257 258 258 257 256 254 253 252 251 250 250 250 250 250 251 251 252 253 255 256 258 261 265 267 268 269 270 270 270 270 269 269 270 270 270 270 270 269 269 268 269 270 271 273 274 275 276 276 276 276 275 275 275 275 275 275 275 275 275 275 275 275 276 276 277 277
252 250 250 250 250 251 253 253 252 253 255 257 258 258 257 255 255 255 256 257 257 257 257 257 256 255 254 254 253 253 253 252 251 252 252 253 253 254 255 257 259 261 264 267 269 270 271 271 271 271 271 270 270 270 270 271 271 271 271 272 272 272 273 274 274 275 276 277 277 277 276 276 276 276 276 276 276 276 276 276 276 275 275 275 275 275 276
254 253 252 251 250 250 250 250 251 253 254 255 256 256 255 253 252 252 253 255 255 253 251 250 249 249 251 253 254 254 255 255 255 255 255 256 256 256 257 260 263 265 267 269 271 271 272 272 271 271 270 270 270 270 271 271 271 272 273 273 273 274 274 274 275 276 276 277 277 277 277 277 277 277 277 277 277 276 276 276 276 276 275 275 275 275 274
256 254 253 251 250 249 249 249 250 250 252 253 253 253 253 252 251 250 250 250 249 248 247 247 248 250 253 255 258 259 259 260 260 261 261 261 261 261 262 264 266 267 268 270 271 271 272 272 271 271 271 271 271 271 271 271 272 272 273 273 274 274 274 275 275 275 276 276 277 277 277 277 277 277 277 277 277 277 277 276 275 275 274 274 274 273 273
257 257 256 254 252 251 250 250 250 250 250 251 251 252 252 252 252 251 251 251 251 251 251 253 256 258 260 262 262 263 263 263 263 263 263 262 262 263 263 265 266 268 269 269 270 270 271 271 271 271 271 271 271 271 272 272 272 273 273 273 274 274 274 275 275 275 275 276 276 276 276 277 277 277 277 276 276 276 275 275 274 274 274 273 273 273 272
258 260 260 258 256 254 252 252 252 252 252 252 252 252 253 253 253 253 253 253 254 255 255 256 258 260 261 263 263 263 263 263 263 263 263 263 263 264 264 264 265 266 267 268 268 269 269 269 270 270 270 271 271 271 271 272 272 273 273 273 273 274 274 274 275 275 275 275 275 275 275 275 275 275 275 274 274 274 273 272 272 272 272 271 271 270 270
256 258 259 258 258 257 256 255 254 254 254 254 254 254 255 255 255 255 255 255 256 256 257 257 258 258 260 261 262 263 263 263 263 263 264 264 264 264 265 265 265 265 266 266 266 267 268 268 269 269 270 270 271 271 271 272 272 273 273 273 274 274 274 275 275 275 275 275 275 274 274 274 273 273 272 272 272 271 271 270 270 270 269 269 268 267 267
257 257 257 258 260 261 261 259 257 257 257 257 257 257 256 256 256 256 256 256 256 257 258 259 259 259 260 261 262 263 264 264 264 264 264 265 265 265 266 266 266 266 266 267 267 268 268 268 269 270 270 271 271 272 272 273 273 273 274 274 275 275 275 275 276 276 276 276 276 275 275 274 273 273 272 272 272 272 271 271 271 270 269 269 268 267 266
260 258 258 259 261 263 265 265 264 262 263 263 262 260 259 258 257 256 257 257 258 258 259 260 260 261 262 262 263 263 263 264 264 264 264 264 265 265 266 266 267 267 267 268 269 269 270 270 271 271 272 273 273 274 274 275 275 276 276 277 277 277 277 277 277 278 278 277 277 277 276 276 276 276 275 274 273 273 273 272 272 271 270 269 268 267 266
261 260 260 261 263 265 267 268 268 267 268 267 266 264 263 262 261 260 260 260 260 261 261 261 262 262 262 263 263 263 263 263 263 264 264 264 265 266 267 268 268 269 269 270 271 272 273 273 274 274 275 276 277 278 278 279 279 279 279 279 279 279 279 279 279 279 279 279 279 279 279 279 280 280 280 279 277 276 275 274 272 271 270 269 268 267 266
261 262 263 264 264 265 267 268 269 268 268 267 266 266 265 264 264 264 264 263 263 263 263 264 263 263 262 263 263 263 264 264 264 264 265 265 266 267 268 268 269 270 272 273 274 275 276 276 277 278 279 280 281 282 283 282 282 281 280 280 280 280 279 280 280 280 281 282 282 283 283 284 284 284 284 283 281 279 277 275 273 271 269 267 266 266 266
263 264 264 264 264 264 266 267 268 268 268 268 267 265 263 263 264 264 263 264 264 265 264 264 264 263 263 263 263 263 263 263 264 264 264 265 266 267 268 269 271 272 273 275 276 277 278 279 280 281 282 283 284 284 283 282 281 280 280 279 279 278 278 280 281 283 284 284 285 285 286 287 287 288 288 287 284 281 277 274 271 269 267 266 264 263 263
264 263 263 263 264 265 266 266 267 268 268 269 269 267 265 264 264 264 263 263 263 263 263 263 263 263 263 263 263 263 263 263 264 265 265 266 268 269 270 272 273 274 276 277 278 279 280 281 282 283 283 283 283 281 279 278 278 278 278 277 277 277 279 282 284 286 286 286 286 287 288 289 290 291 291 289 286 282 278 274 270 267 265 263 261 259 258
263 262 262 263 264 264 264 265 266 267 268 268 268 267 266 265 265 265 265 265 264 264 263 263 263 263 263 264 264 264 264 265 266 266 268 269 270 271 272 273 274 275 276 276 277 278 279 281 283 284 284 284 282 280 280 278 277 276 276 276 278 280 282 284 286 287 287 288 289 290 291 292 293 295 294 292 287 283 278 275 272 269 266 262 258 255 254
264 263 262 263 263 263 264 264 265 266 266 267 267 267 267 267 267 267 268 267 267 267 267 267 267 267 267 266 267 267 267 268 268 268 269 270 270 272 272 272 272 272 272 273 273 275 278 282 285 288 289 290 289 287 285 281 279 277 277 278 279 280 282 285 287 288 289 290 292 294 296 298 301 303 301 297 292 286 281 278 275 273 269 264 258 252 247
266 264 264 263 262 261 262 262 263 264 265 265 266 267 268 268 268 268 269 269 269 269 270 270 270 270 270 269 269 269 269 269 269 268 269 269 270 269 269 268 267 266 266 267 268 270 273 278 281 284 286 287 286 284 281 279 278 277 276 276 277 279 281 285 287 289 291 293 295 298 302 308 311 311 307 301 295 289 284 280 277 273 269 263 255 246 241
269 267 265 264 262 262 262 262 263 264 265 265 266 266 266 267 267 268 268 268 269 269 269 269 269 270 270 269 269 269 268 268 267 267 267 267 266 264 261 259 258 257 257 258 260 261 265 271 275 277 277 276 276 277 278 277 276 275 276 277 277 279 282 285 288 291 294 296 300 305 311 317 318 315 309 303 298 293 288 284 279 272 263 255 244 235 234
272 270 267 265 264 265 265 265 265 265 265 266 266 266 267 267 268 268 268 267 267 267 267 268 268 268 268 267 267 267 267 266 265 264 263 261 259 255 249 246 245 246 248 251 255 259 263 269 275 278 276 278 284 289 290 286 282 280 279 278 278 280 283 286 291 294 297 301 306 312 319 323 322 318 311 306 303 299 295 289 276 248 223 222 216 210 216
275 274 271 268 268 268 267 267 266 265 265 265 265 265 266 267 267 267 267 267 267 267 267 267 268 267 267 267 267 267 266 264 262 260 256 251 246 241 236 234 236 239 243 249 257 263 267 272 277 279 281 289 302 307 303 296 289 284 282 281 282 285 288 291 294 297 301 306 313 319 325 328 327 322 314 310 309 311 313 310 189 166 170 176 184 196 210
277 275 273 270 269 268 268 268 267 266 266 266 266 266 267 266 266 266 266 266 266 266 267 267 268 267 268 268 268 268 265 261 256 250 244 239 235 231 229 230 234 238 245 253 261 268 273 277 279 280 284 296 308 311 310 305 299 294 293 292 294 297 297 298 301 303 307 313 318 326 332 333 331 325 320 320 324 331 344 92 140 156 173 180 190 205 217
280 278 275 272 270 269 267 268 268 268 268 268 268 268 268 267 266 266 265 265 266 266 266 267 267 268 268 268 268 267 262 255 247 239 233 229 228 227 228 232 236 241 248 256 263 270 277 281 281 281 286 299 307 309 310 311 310 312 314 316 317 317 316 314 314 313 315 319 325 333 339 341 337 329 329 336 346 353 356 153 174 190 197 193 202 216 225
280 279 277 274 273 272 271 271 271 270 270 270 270 269 268 267 266 266 265 265 264 264 265 266 266 266 267 267 266 263 257 247 238 232 227 225 227 229 232 236 239 243 248 255 262 268 273 278 279 281 287 300 306 306 309 313 318 324 330 334 336 336 336 335 332 328 326 327 332 341 348 350 347 341 341 349 359 356 342 238 200 203 199 191 198 216 229
279 279 278 278 277 275 274 274 273 273 273 272 271 270 269 268 268 267 266 264 263 262 263 264 264 264 265 264 261 257 251 242 235 230 227 226 229 233 235 238 241 243 244 249 257 264 269 272 273 277 287 299 304 303 308 317 324 329 335 340 343 344 346 349 348 343 338 336 341 351 358 1 -0 356 357 4 9 359 340 194 181 188 191 192 204 227 240
279 279 279 279 279 278 276 275 275 275 275 274 273 272 271 270 269 268 267 265 264 263 263 263 263 262 262 260 256 251 245 239 234 231 230 230 232 235 237 239 241 241 240 243 252 262 268 268 268 274 286 297 298 299 307 319 327 330 335 340 344 347 351 355 357 356 352 348 349 358 6 10 10 8 8 14 19 16 24 157 165 177 191 200 217 237 250
279 279 279 279 279 278 277 277 276 276 276 276 275 276 275 273 271 271 269 267 265 264 263 262 261 261 259 256 250 246 242 238 235 234 233 234 235 237 238 239 241 241 241 244 252 263 269 269 267 271 284 292 293 296 305 317 322 326 332 341 347 351 354 357 0 3 3 0 356 0 9 16 18 18 18 21 25 29 45 169 198 210 207 204 212 234 250
278 276 276 276 276 276 276 277 277 277 277 276 276 276 275 274 273 271 270 268 265 263 262 261 260 258 256 252 246 242 240 239 237 237 236 236 237 238 239 241 244 245 245 248 254 262 268 268 264 264 276 286 290 296 306 314 317 322 333 343 348 352 354 357 1 6 8 8 4 1 6 15 22 25 27 29 31 31 31 12 296 254 236 234 245 258 265
279 278 277 276 276 277 276 275 276 276 277 277 277 276 275 274 273 272 271 269 266 263 262 260 258 256 254 249 243 240 239 239 239 239 239 238 238 239 241 244 246 247 252 257 260 260 260 260 258 258 269 279 285 293 304 309 312 321 335 344 347 351 354 357 1 5 9 12 12 8 3 5 13 21 28 33 34 34 32 26 11 333 274 259 262 270 277
272 272 272 272 274 277 278 278 278 278 278 278 278 277 275 274 274 273 272 270 267 264 261 259 257 255 252 247 242 238 238 240 241 241 240 240 240 241 242 245 247 252 259 262 257 248 244 247 252 256 266 275 281 289 297 301 306 317 332 342 346 349 352 356 359 4 8 11 15 16 13 7 2 3 10 19 27 30 31 30 27 23 13 348 320 314 309
266 265 266 267 267 270 273 276 278 279 280 279 277 276 275 275 275 274 273 271 268 265 262 259 257 254 251 246 241 237 237 239 242 243 243 243 242 242 244 246 248 252 256 253 242 233 235 242 248 256 265 274 280 286 290 294 302 315 330 338 342 345 348 351 356 0 4 8 12 17 19 18 14 8 0 352 350 355 3 8 10 10 7 4 0 350 339
271 270 269 267 265 266 270 274 275 277 279 280 279 277 276 275 275 275 275 272 269 266 263 259 255 252 249 246 241 237 235 238 242 244 245 245 243 242 243 244 244 243 242 239 236 236 239 242 246 256 267 273 279 285 290 293 301 313 324 331 335 339 342 346 349 353 357 1 6 10 16 20 21 20 17 9 357 342 327 319 320 325 331 337 342 343 338
277 275 272 266 263 263 267 270 272 274 277 280 281 281 281 279 278 277 275 273 270 267 263 259 255 252 248 245 241 236 234 236 240 242 243 243 241 238 236 236 235 234 235 237 238 238 239 241 247 256 265 270 276 284 291 295 300 308 317 323 327 331 335 339 343 347 350 353 357 2 7 11 15 18 20 19 16 10 358 340 317 300 294 296 300 293 283
285 283 278 270 262 259 261 265 268 270 272 275 277 278 279 280 280 279 277 275 273 269 264 259 255 251 248 245 241 237 234 234 237 239 239 237 234 230 228 228 229 230 232 235 237 238 240 243 247 252 258 265 272 279 288 294 299 305 312 317 321 326 330 332 336 341 345 347 350 353 357 1 4 6 8 11 13 14 13 10 1 340 307 284 271 265 263
288 288 285 277 268 262 262 265 266 266 265 267 270 273 274 276 278 278 278 277 275 272 267 261 256 251 246 244 242 238 233 230 232 236 235 230 226 224 225 226 228 230 231 234 237 241 243 244 246 249 254 260 265 271 279 287 293 299 305 310 315 320 326 329 332 336 340 343 346 348 350 353 356 358 359 -0 1 3 5 6 8 8 2 345 314 282 268
293 292 289 283 275 269 266 266 266 265 262 261 263 265 266 268 272 274 274 272 269 268 266 263 259 254 249 244 242 238 232 227 228 232 232 228 225 225 226 226 227 230 233 236 239 242 245 245 247 250 254 258 262 266 272 277 283 288 293 299 305 311 317 322 327 330 334 337 341 344 347 349 350 352 353 355 356 356 357 357 358 0 3 5 5 358 341
294 294 292 288 282 276 272 271 271 269 266 262 259 258 259 262 267 271 271 267 263 262 261 260 258 257 253 248 244 239 234 229 227 229 230 230 228 228 228 228 228 230 233 236 238 241 244 247 249 253 257 261 263 265 267 271 275 280 284 290 295 301 306 311 316 320 324 328 332 335 338 341 343 345 347 348 350 351 352 352 353 354 355 357 359 0 0
292 293 295 293 286 280 277 277 275 274 272 268 262 258 258 261 265 268 266 262 259 259 259 256 253 253 253 250 246 241 236 233 230 229 230 231 232 232 231 232 232 232 234 238 241 243 246 250 253 257 260 262 263 266 269 272 275 278 282 286 291 295 299 303 307 309 312 316 320 324 327 329 331 333 336 338 340 342 344 345 346 348 349 351 352 353 352
298 298 297 294 289 284 281 279 276 273 271 269 264 261 261 263 265 264 261 258 257 259 260 256 251 249 251 251 249 245 240 236 234 232 231 232 234 235 235 236 238 239 241 244 246 248 250 253 257 259 261 262 264 266 268 271 273 276 280 285 289 293 296 298 300 302 305 307 310 314 317 318 319 321 323 325 327 330 332 334 335 336 338 340 343 344 345